www.pogodaiklimat.ru

Погода и климат >> Архив погоды >> Индонезия >> Лхоксёмаве


ПОГОДА в Лхоксёмаве

  • Прогноз погоды в Лхоксёмаве
  • Монитор погоды в Лхоксёмаве

АРХИВ ПОГОДЫ в Лхоксёмаве

Время (UTC), дата Ветер
(напр.,м/с)
 
Видим.   Явления Облачность Т
(С)
Тd
(С)
f
(%)
Тe
(С)
Тes
(С)
Комфортность P
(гПа)
Po
(гПа)
Тmin
(С)
Tmax
(С)
R
(мм)
R24
(мм)
S
(см)
15 17.04 Ю 1 6000 м 10/3 540 м
[Sc diur, vesp As op Ci sp]
+28.6 +26.1 86 +43 +43 опасность
перегрева
1010.1 1006.6
18 17.04 ЮЗ 2 5000 м мгла 3/1 570 м
[Sc As trans Ci fib]
+26.5 +24.9 91 +38 +38 очень
душно
1009.9 1006.4
21 17.04 ЮЗ 2 6000 м 4/3 570 м
[Sc As op Ci fib]
+24.7 +24.0 96 +34 +34 очень
душно
1008.1 1004.7
00 18.04 С 2 6000 м мгла 5/4 500 м
[Sc As op Ci fib]
+24.1 +22.5 91 +32 +32 очень
душно
1006.7 1005.4 +23.0
03 18.04 С 3 7000 м 3/1 500 м
[Sc As trans Ci fib]
+31.5 +23.9 64 +43 +53 опасность
перегрева
1011.2 1007.7
06 18.04 С 5 6000 м 5/3 480 м
[Cu med, cong As trans Ci fib]
+32.0 +25.5 69 +47 +54 опасность
перегрева
1010.5 1007.1
09 18.04 С 3 6000 м 4/3 480 м
[Cb cap As trans Ci fib]
+32.5 +25.2 65 +46 +51 опасность
перегрева
1007.8 1004.3
12 18.04 З 1 5000 м мгла 8/5 450 м
[Cb cap As op Ci fib]
+30.3 +25.3 75 +44 +44 опасность
перегрева
1008.3 1004.8 +33.6
15 18.04 ЮЗ 2 5000 м мгла 5/1 500 м
[Cu med, cong As trans Ci fib]
+27.0 +22.8 78 +36 +36 очень
душно
1010.6 1007.1
18 18.04 ЮЗ 2 5000 м мгла 6/1 500 м
[Cu med, cong As op Ci fib]
+26.0 +23.3 85 +35 +35 очень
душно
1010.2 1006.7
21 18.04 ЮЗ 2 5000 м мгла 9/3 540 м
[Sc As op Ci sp]
+25.0 +22.8 88 +33 +33 очень
душно
1008.2 1004.7
00 19.04 ЮЗ 2 6000 м 8/1 540 м
[Sc As op Ci sp]
+24.4 +21.9 86 +31 +32 очень
душно
1009.3 1005.8 +24.1
03 19.04 З 2 6000 м 6/3 500 м
[Cu med, cong As op Ci fib]
+31.2 +23.7 64 +42 +50 опасность
перегрева
1011.1 1007.7
06 19.04 С 3 7000 м 8/1 480 м
[Cu med, cong As trans Ci fib]
+33.0 +25.3 64 +47 +58 опасность
перегрева
1008.8 1005.3
09 19.04 С 4 8000 м 6/3 480 м
[Cu med, cong As trans Ci fib]
+31.6 +25.1 69 +46 +49 опасность
перегрева
1006.3 1002.9
12 19.04 СЗ 2 6000 м 10/5 480 м
[Cb cap As op Ci fib]
+29.4 +25.2 78 +43 +43 опасность
перегрева
1007.1 1003.7 +33.6
15 19.04 СЗ 2 6000 м зарница {гроза} 10/5 480 м
[Cb cap As op Ci fib]
+29.4 +25.7 81 +44 +44 опасность
перегрева
1010.1 1006.6
18 19.04 ЮЗ 3 7000 м {гроза} 8/3 500 м
[Cu med, cong As op Ci fib]
+26.1 +23.8 87 +36 +36 очень
душно
1009.1 1005.6
21 19.04 ЮЗ 2 7000 м 8/3 500 м
[Sc As op Ci fib]
+25.0 +23.7 93 +34 +34 очень
душно
1007.5 1004.0
00 20.04 З 2 7000 м {гроза} 8/1 480 м
[Cu med, cong As op Ci fib]
+25.0 +23.2 90 +33 +34 очень
душно
1008.2 1004.7 +25.0
03 20.04 З 4 8000 м 6/3 480 м
[Cu med, cong As op Ci fib]
+31.4 +23.6 63 +42 +48 опасность
перегрева
1009.9 1006.5
06 20.04 СЗ 3 8000 м 6/1 480 м
[Cu med, cong As op Ci fib]
+33.1 +25.4 64 +48 +59 опасность
перегрева
1008.7 1005.2
09 20.04 С 4 8000 м 8/3 480 м
[Cu med, cong As op Ci fib]
+31.1 +25.3 71 +45 +47 опасность
перегрева
1005.8 1002.4
12 20.04 З 2 6000 м 6/4 500 м
[Cu med, cong As op Ci fib]
+29.6 +23.0 68 +40 +40 очень
душно
1005.7 1002.3 +33.2
15 20.04 ЮЗ 2 6000 м 5/1 500 м
[Sc As trans Ci fib]
+26.9 +24.7 88 +38 +38 очень
душно
1008.0 1004.6
18 20.04 ЮЗ 2 6000 м 4/1 500 м
[Sc As trans Ci fib]
+25.3 +24.1 93 +35 +35 очень
душно
1007.6 1004.2
21 20.04 ЮЗ 2 6000 м 5/1 500 м
[Sc As trans Ci fib]
+24.5 +22.2 87 +32 +32 очень
душно
1005.8 1002.3
00 21.04 ЮЗ 2 9000 м 4/1 500 м
[Sc As trans Ci fib]
+23.8 +21.6 87 +30 +31 очень
душно
1007.0 1003.5 +23.8
03 21.04 З 1 8000 м 8/3 500 м
[Sc As trans Ci fib]
+31.6 +22.7 59 +41 +48 опасность
перегрева
1008.3 1004.8
06 21.04 С 3 8000 м 8/3 480 м
[Cu med, cong As trans Ci fib]
+23.9 +24.5 100 +33 +41 очень
душно
1006.0 1002.6
09 21.04 С 3 8000 м 6/3 480 м
[Cu med, cong As op Ci fib]
+32.8 +25.2 64 +47 +50 опасность
перегрева
1004.3 1000.9
12 21.04 штиль 0 6000 м 5/1 480 м
[Cu med, cong As op Ci fib]
+30.2 +25.9 78 +45 +45 опасность
перегрева
1005.5 1001.9 +33.6
15 21.04 ЮЗ 1 6000 м 8/3 480 м
[Cu med, cong As op Ci fib]
+27.3 +25.7 91 +40 +40 очень
душно
1006.8 1003.6
18 21.04 ЮЗ 1 6000 м 8/3 480 м
[Cu med, cong As op Ci fib]
+26.7 +25.8 95 +40 +40 очень
душно
1006.2 1002.5
21 21.04 ЮЗ 2 6000 м 3/1 540 м
[Sc As trans Ci fib]
+24.6 +23.2 92 +33 +33 очень
душно
1005.0 1001.6
00 22.04 ЮЗ 2 7000 м 4/1 540 м
[Sc As trans Ci fib]
+24.4 +22.4 89 +32 +32 очень
душно
1006.1 1002.7 +23.8
03 22.04 З 2 8000 м 6/1 500 м
[Sc As trans Ci fib]
+31.7 +23.8 63 +43 +53 опасность
перегрева
1007.9 1004.4
06 22.04 СВ 3 8000 м 8/3 480 м
[Cu med, cong As trans Ci fib]
+33.7 +24.5 59 +47 +55 опасность
перегрева
1006.6 1003.1
09 22.04 СВ 6 6000 м гроза без осадков 8/4 450 м
[Cb cap As op Ci fib]
+32.2 +24.8 65 +45 +47 опасность
перегрева
1004.6 1001.2
12 22.04 Ю 2 6000 м мгла {гроза} 8/4 450 м
[Cb cap As op Ci fib]
+29.4 +25.4 79 +43 +43 опасность
перегрева
1004.8 1001.5 +34.2
15 22.04 штиль 0 6000 м 9/4 480 м
[Cu med, cong As op Ci fib]
+27.2 +24.0 83 +38 +38 очень
душно
1007.1 1003.6
18 22.04 штиль 0 6000 м 8/3 480 м
[Cu med, cong As op Ci fib]
+26.0 +23.6 87 +35 +35 очень
душно
1007.0 1003.6
21 22.04 ЮЗ 1 6000 м 8/4 500 м
[Sc As op Ci fib]
+24.9 +23.5 92 +34 +34 очень
душно
1005.6 1002.2
00 23.04 ЮЗ 1 6000 м 8/4 500 м
[Sc As op Ci fib]
+24.4 +23.9 97 +33 +34 очень
душно
1007.4 1003.9 +24.2
03 23.04 штиль 0 6000 м 8/4 500 м
[Sc As op Ci fib]
+30.3 +23.5 67 +41 +48 опасность
перегрева
1009.6 1006.2
06 23.04 СВ 2 6000 м 8/4 450 м
[Cb cap As op Ci fib]
+31.4 +24.5 67 +44 +53 опасность
перегрева
1008.4 1005.0
09 23.04 СВ 3 4000 м гроза без осадков 8/5 450 м
[Cb cap As op Ci fib]
+30.6 +22.5 62 +40 +42 очень
душно
1006.0 1002.5
12 23.04 СВ 1 4000 м в посл. час гроза 10/5 450 м
[Cb cap As op Ci fib]
+28.8 +25.2 81 +42 +42 опасность
перегрева
1007.1 1003.6 +33.7
15 23.04 штиль 0 5000 м мгла {гроза} 10/4 450 м
[Cb cap As op Ci fib]
+26.5 +24.8 90 +38 +38 очень
душно
1009.2 1005.7
18 23.04 штиль 0 5000 м мгла {гроза} 8/3 500 м
[Sc diur, vesp As op Ci fib]
+25.9 +24.9 94 +37 +37 очень
душно
1008.8 1005.3
21 23.04 штиль 0 6000 м 6/3 500 м
[Sc As op Ci fib]
+24.8 +23.8 94 +34 +34 очень
душно
1007.3 1003.9
00 24.04 штиль 0 5000 м мгла 8/3 500 м
[Sc As op Ci fib]
+24.4 +23.4 94 +33 +33 очень
душно
1008.6 1005.1 +24.0
03 24.04 ЮВ 4 6000 м 5/1 600 м
[Sc Ac As Ci sp]
+32.6 +23.9 60 +44 +50 опасность
перегрева
1009.9 1006.4
06 24.04 СВ 6 5000 м мгла 9/3 480 м
[Cu med, cong As op Ci sp]
+33.0 +23.8 59 +45 +48 опасность
перегрева
1008.3 1004.8
09 24.04 СВ 5 6000 м 9/4 450 м
[Cb cap As op Ci fib]
+32.4 +25.0 65 +46 +48 опасность
перегрева
1005.1 1001.6

 

Местоположение метеостанции Лхоксёмаве (Индонезия): широта 5.23 долгота 97.20 высота над уровнем моря 87 м.

В архиве по умолчанию представлена погода в Лхоксёмаве за последнюю неделю. Архивные данные за месяц целиком и за предыдущие месяцы, начиная с января 2011 года, Вы можете получить, выбрав интересующий диапазон дат из раскрывающегося списка и нажав кнопку "Ввод!".


*Определитесь, кто Вы:
робот инопланетянин человек

Внимание! Время в таблицах - всемирное. Для получения местного времени необходимо прибавить поправку, которая равна 7 ч.

Смотрите также архив погоды в соседних городах и на ближайших метеорологических станциях:

Погода в Меулабохе (Индонезия) (162 км)
Погода в Банда-Ачехе (Индонезия) (200 км)
Погода в Сабанге (Индонезия) (220 км)
Погода в Белаване (Индонезия) (230 км)
Погода в Медан Полония (Индонезия) (247 км)
Погода в Лангкави (Малайзия) (306 км)
Погода на Пхукете (Таиланд) (323 км)
Погода на Ко Ланта (Таиланд) (328 км)
Погода в Пенанге (Малайзия) (339 км)
Погода в Пхукет аэропорту (Таиланд) (345 км)

Пояснения к столбцам:

Ветер - указаны скорость ветра в м/с - средняя за 10 мин, порывы в срок и между сроками (в фигурных скобках) и направление, откуда дует ветер: С - северный, СВ - северо-восточный, В - восточный, ЮВ - юго-восточный, Ю - южный, ЮЗ - юго-западный, З - западный, СЗ - северо-западный.
Видимость - горизонтальная дальность видимости в метрах или километрах. При видимости от 1 до 10 км при отсутствии осадков обычно наблюдается дымка, при ухудшении видимости до 1 км и менее - туман. В сухую погоду видимость может ухудшаться дымом, пылью или мглою.
Явления - указаны атмосферные явления, наблюдавшиеся в срок или в последний час перед сроком; фигурными скобками обозначены явления, наблюдавшиеся между сроками (за 1-3 часа до срока); квадратными скобками обозначены град или гололедные отложения с указанием их диаметра в мм.
Облачность - указаны через наклонную черту общая и нижняя облачность в баллах и высота нижней границы облаков в метрах; квадратными скобками обозначены формы облаков: Ci - перистые, Cs - перисто-слоистые, Cc - перисто-кучевые, Ac - высококучевые, As - высокослоистые, Sc - слоисто-кучевые, Ns - слоисто-дождевые, Cu - кучевые, Cb - кучево-дождевые. Подробнее классификацию облаков см. в Атласе облаков (PDF).
T - Температура воздуха - температура, измеренная на высоте 2 м над землей.
Td - Температура точки росы - температура, при понижении до которой содержащийся в воздухе водяной пар достигнет насыщения.
f - Относительная влажность воздуха - влажноcть воздуха, измеренная на высоте 2 м над землей.
Te - Эффективная температура - температура, которую ощущает одетый по сезону человек в тени. Характеристика душности погоды. При расчете учитывается влияние влажности воздуха и скорости ветра на теплоощущения человека.
Tes - Эффективная температура на солнце - температура, которую ощущает человек, с поправкой на солнечный нагрев. Характеристика знойности погоды. Зависит от высоты солнца над горизонтом, облачности и скорости ветра. Ночью, в пасмурную погоду, а также при ветре 12 м/с и более поправка равна нулю.
P - Атмосферное давление - приведенное к уровню моря атмосферное давление.
Po - Атмосферное давление - измеренное на уровне метеостанции атмосферное давление.
Tmin - Минимальная температура - минимум температуры воздуха на высоте 2 м над землей.
Tmax - Максимальная температура - максимум температуры воздуха на высоте 2 м над землей.
R - Количество осадков - Количество выпавших осадков за период времени, мм. При наведении курсора мыши на число - период времени, за который выпало указанное количество осадков.
R24 - Количество осадков - Количество выпавших осадков за 24 часа, мм.
S - Снежный покров - Высота снежного покрова, см. При наведении курсора мыши на число - состояние снежного покрова и степень покрытия местности в баллах.